Regional Weather Roundup
Issued by NWS

Home | Current Version | Previous Version | Graphics & Text | Print | Product List | Glossary On
Versions: 1 2 3 4 5 6 7 8 9 10 11 12 13 14 15 16 17 18 19 20 21 22 23 24 25 26 27 28 29 30 31 32 33 34 35 36 37 38 39 40 41 42 43 44 45 46 47 48 49 50
764
ASUS44 KLIX 200705
RWRLA
LOUISIANA WEATHER ROUNDUP
NATIONAL WEATHER SERVICE NEW ORLEANS LA
200 AM CDT SUN APR 20 2014

NOTE: "FAIR" INDICATES FEW OR NO CLOUDS BELOW 12,000 FEET WITH NO
      SIGNIFICANT WEATHER AND/OR OBSTRUCTIONS TO VISIBILITY.
      SKY/WX - SKY CONDITION AND SIGNIFICANT WEATHER.
      TMP - AIR TEMPERATURE.    DP   - DEWPOINT TEMPERATURE.
      RH  - RELATIVE HUMIDITY.  PRES - PRESSURE.
      HX  - HEAT INDEX.         WCI  - WIND CHILL INDEX.

*  THESE STATIONS ARE NOT NWS OR FAA STATIONS AND ARE NOT UNDER
   NWS QUALITY CONTROL.

LAZ040-048-061>063-065-066-069-200800-
SOUTHEAST LOUISIANA

CITY           SKY/WX    TMP DP  RH WIND       PRES   REMARKS
N.O. AUDUBON     N/A     61  55  80 MISG        N/A
N.O. INTL ARPT CLEAR     63  56  78 CALM      30.11S
N.O. LAKEFRONT CLEAR     67  59  75 N7        30.11S
N.O. DOWNTOWN* FAIR      68  52  56 N3        30.11S
SLIDELL        CLEAR     56  52  86 CALM      30.09F
BATON ROUGE    CLEAR     58  53  84 CALM      30.12S
BOOTHVILLE     CLEAR     63  60  90 NW5       30.10S
BELLE CHASSE   CLEAR     57  54  89 CALM      30.10S
BOGALUSA*        N/A     55  51  88 CALM      30.12S
GALLIANO*      SUNNY     59  57  92 CALM      30.11S
NEW ROADS*     FAIR      57  55  94 CALM      30.13S
GONZALES*      FAIR      57  56  98 CALM      30.11F
HAMMOND*       CLEAR     55  52  88 CALM      30.13S
HOUMA*           N/A     60  57  89 CALM      30.12S
PORT FOURCHON* SUNNY     66  63  88 W7        30.12F

$$

LAZ041-044-053-054-200800-
SOUTHWEST LOUISIANA

CITY           SKY/WX    TMP DP  RH WIND       PRES   REMARKS
LAKE CHARLES   MOCLDY    59  58  96 NW5       30.15R
LAFAYETTE      CLEAR     60  57  89 CALM      30.13R
PATTERSON      CLEAR     59  57  94 CALM      30.15S
SALT POINT       N/A     67  63  87 CALM      30.11F
NEW IBERIA     CLEAR     59  56  89 CALM      30.13S
CHENAULT AIRPK MOCLDY    61  58  89 NW3       30.16R

$$

LAZ027-028-200800-
CENTRAL LOUISIANA

CITY           SKY/WX    TMP DP  RH WIND       PRES   REMARKS
FORT POLK      MOCLDY    57  54  89 SW3       30.15R
ALEXANDRIA INT PTCLDY    57  55  93 CALM      30.13R
ALEXANDRIA     MOCLDY    54  52  93 CALM      30.14R

$$

LAZ001-002-200800-
NORTHWEST LOUISIANA

CITY           SKY/WX    TMP DP  RH WIND       PRES   REMARKS
SHREVEPORT     MOCLDY    57  53  86 CALM      30.14F
BARKSDALE AFB  PTCLDY    57  55  90 SE1       30.15F
DTN SHREVEPORT PTCLDY    56  54  93 CALM      30.15F

$$

LAZ014-016-200800-
NORTHEAST LOUISIANA

CITY           SKY/WX    TMP DP  RH WIND       PRES   REMARKS
MONROE         PTCLDY    55  54  96 CALM      30.15S
TALLULAH       MOCLDY    59  57  93 CALM      30.13S

$$




USA.gov is the U.S. government's official web portal to all federal, state and local government web resources and services.